Location: Ajisawe
(8.4333°N, 4.3833°E)
Time: 23:07:00
(UTC+00:00)

S-56A Canister/Altair - Pass Details

Date: 22 April 2021
Orbit: 631 x 2501 km, 38.9° (Epoch: 15 May)

Event Time Altitude Azimuth Distance (km) Brightness Sun altitude
Rises 20:04:12 0° 243° (WSW) 6,025 12.6 -32.2°
Reaches altitude 10° 20:08:38 10° 248° (WSW) 4,853 12.1 -33.3°
Maximum altitude 20:21:07 49° 318° (NW) 2,216 10.0 -36.1°
Enters shadow 20:27:54 19° 25° (NNE) 2,935 10.4 -37.7°
